Weather History for EGBB - December, 2012

Change the Weather History Date:

Monday, December 17, 2012

  Actual Average Record
Temperature  
Mean Temperature 42 °F -  
Max Temperature 46 °F 44 °F 55 °F (2014)
Min Temperature 37 °F 33 °F 23 °F (2010)
Degree Days  
Heating Degree Days 24    
Moisture  
Dew Point 40 °F    
Average Humidity 89    
Maximum Humidity 100    
Minimum Humidity 76    
Precipitation  
Precipitation 0.00 in 0.08 in - ()
Sea Level Pressure  
Sea Level Pressure 29.50 in    
Wind  
Wind Speed 6 mph ()    
Max Wind Speed 12 mph    
Max Gust Speed -    
Visibility 6.1 miles    
Events Rain    
Averages and records for this station are not official NWS values.
T = Trace of Precipitation, MM = Missing Value Source: Averaged Metar Reports

Daily Weather History Graph

Daily Weather History Graph

Search for Another Location

Airport or City:

Trip Planner

Search our weather history database for the weather conditions in past years. The results will help you decide how hot, cold, wet, or windy it might be!

Date:

Astronomy

Dec. 17, 2012 Rise Set
Actual Time 8:13 AM GMT 3:53 PM GMT
Civil Twilight 7:31 AM GMT 4:35 PM GMT
Nautical Twilight 6:47 AM GMT 5:19 PM GMT
Astronomical Twilight 6:05 AM GMT 6:01 PM GMT
Moon 10:42 AM GMT (12/17) 9:34 PM GMT (12/17)
Length of Visible Light 9h 03m
Length of Day
7h 40m
Waxing Crescent, 23% of the Moon is Illuminated
Dec 17
Waxing Crescent
Dec 20
First Quarter
Dec 28
Full
Jan 5
Last Quarter
Jan 11
New

Hourly Weather History & Observations

Time (GMT) Temp. Windchill Dew Point Humidity Pressure Visibility Wind Dir Wind Speed Gust Speed Precip Events Conditions
12:20 AM 41.0 °F 38.0 °F 39.2 °F 93% 29.42 in 6.2 mi SW 4.6 mph - N/A   Partly Cloudy
12:50 AM 41.0 °F 37.1 °F 39.2 °F 93% 29.42 in 6.2 mi SSW 5.8 mph - N/A   Partly Cloudy
1:20 AM 41.0 °F 37.1 °F 39.2 °F 93% 29.39 in 6.2 mi South 5.8 mph - N/A   Mostly Cloudy
1:50 AM 39.2 °F 35.0 °F 39.2 °F 100% 29.39 in 6.2 mi South 5.8 mph - N/A   Partly Cloudy
2:20 AM 41.0 °F 37.1 °F 39.2 °F 93% 29.39 in 6.2 mi SW 5.8 mph - N/A   Partly Cloudy
2:50 AM 41.0 °F 37.1 °F 41.0 °F 100% 29.42 in 6.2 mi South 5.8 mph - N/A   Scattered Clouds
3:20 AM 41.0 °F 36.4 °F 39.2 °F 93% 29.42 in 6.2 mi SSW 6.9 mph - N/A   Scattered Clouds
3:50 AM 41.0 °F 37.1 °F 39.2 °F 93% 29.42 in - SSW 5.8 mph - N/A   Clear
4:20 AM 41.0 °F 37.1 °F 39.2 °F 93% 29.42 in - SSW 5.8 mph - N/A   Clear
4:50 AM 41.0 °F 37.1 °F 39.2 °F 93% 29.42 in 5.0 mi SSW 5.8 mph - N/A   Scattered Clouds
5:20 AM 39.2 °F 37.0 °F 37.4 °F 93% 29.42 in - Variable 3.5 mph - N/A   Clear
5:50 AM 37.4 °F 32.8 °F 35.6 °F 93% 29.42 in - SE 5.8 mph - N/A   Clear
6:20 AM 37.4 °F 33.8 °F 37.4 °F 100% 29.44 in 6.2 mi SSW 4.6 mph - N/A   Partly Cloudy
6:50 AM 39.2 °F 35.0 °F 39.2 °F 100% 29.44 in 6.2 mi SSW 5.8 mph - N/A   Partly Cloudy
7:20 AM 39.2 °F 35.9 °F 39.2 °F 100% 29.44 in - SSW 4.6 mph - N/A   Clear
7:50 AM 39.2 °F 37.0 °F 37.4 °F 93% 29.44 in 6.2 mi South 3.5 mph - N/A   Partly Cloudy
8:20 AM 39.2 °F 35.0 °F 39.2 °F 100% 29.47 in 6.2 mi SSW 5.8 mph - N/A   Scattered Clouds
8:50 AM 41.0 °F 37.1 °F 39.2 °F 93% 29.47 in 6.2 mi SW 5.8 mph - N/A   Partly Cloudy
9:20 AM 41.0 °F 36.4 °F 39.2 °F 93% 29.47 in 6.2 mi WSW 6.9 mph - N/A   Partly Cloudy
9:50 AM 42.8 °F 39.3 °F 39.2 °F 87% 29.50 in - WSW 5.8 mph - N/A   Clear
10:20 AM 42.8 °F 38.6 °F 39.2 °F 87% 29.50 in - SW 6.9 mph - N/A   Clear
10:50 AM 44.6 °F 40.2 °F 41.0 °F 87% 29.50 in - SW 8.1 mph - N/A   Clear
11:20 AM 44.6 °F 40.2 °F 41.0 °F 87% 29.53 in - WSW 8.1 mph - N/A   Clear
11:50 AM 44.6 °F 40.7 °F 41.0 °F 87% 29.53 in - WSW 6.9 mph - N/A   Clear
12:20 PM 46.4 °F 41.9 °F 41.0 °F 81% 29.53 in - WSW 9.2 mph - N/A   Clear
12:50 PM 46.4 °F 41.9 °F 41.0 °F 81% 29.53 in 6.2 mi WSW 9.2 mph - N/A   Partly Cloudy
1:20 PM 46.4 °F 41.5 °F 39.2 °F 76% 29.53 in 6.2 mi WSW 10.4 mph - N/A   Partly Cloudy
1:50 PM 46.4 °F 41.1 °F 39.2 °F 76% 29.53 in 6.2 mi WSW 11.5 mph - N/A   Mostly Cloudy
2:20 PM 46.4 °F 42.9 °F 39.2 °F 76% 29.53 in 6.2 mi WSW 6.9 mph - N/A   Mostly Cloudy
2:50 PM 46.4 °F 42.4 °F 41.0 °F 81% 29.53 in 6.2 mi WSW 8.1 mph - N/A   Mostly Cloudy
3:20 PM 46.4 °F 41.9 °F 39.2 °F 76% 29.53 in 6.2 mi West 9.2 mph - N/A   Scattered Clouds
3:50 PM 44.6 °F 40.2 °F 39.2 °F 81% 29.53 in 6.2 mi West 8.1 mph - N/A   Partly Cloudy
4:20 PM 44.6 °F 40.2 °F 41.0 °F 87% 29.53 in 6.2 mi WSW 8.1 mph - N/A   Partly Cloudy
4:50 PM 44.6 °F 41.4 °F 41.0 °F 87% 29.56 in 6.2 mi SW 5.8 mph - N/A   Partly Cloudy
5:20 PM 42.8 °F 39.3 °F 39.2 °F 87% 29.56 in 6.2 mi SW 5.8 mph - N/A   Partly Cloudy
5:50 PM 44.6 °F 40.7 °F 39.2 °F 81% 29.56 in 6.2 mi WSW 6.9 mph - N/A   Scattered Clouds
6:20 PM 44.6 °F 41.4 °F 41.0 °F 87% 29.56 in 6.2 mi SW 5.8 mph - N/A   Mostly Cloudy
6:50 PM 44.6 °F 41.4 °F 41.0 °F 87% 29.56 in 6.2 mi SW 5.8 mph - N/A Rain Light Rain
7:20 PM 44.6 °F 41.4 °F 41.0 °F 87% 29.59 in 6.2 mi SW 5.8 mph - N/A Rain Light Rain
7:50 PM 44.6 °F 41.4 °F 41.0 °F 87% 29.59 in 6.2 mi SW 5.8 mph - N/A Rain Light Rain
8:20 PM 42.8 °F 38.6 °F 41.0 °F 93% 29.59 in 6.2 mi SW 6.9 mph - N/A Rain Light Rain
8:50 PM 42.8 °F 39.3 °F 41.0 °F 93% 29.59 in 6.2 mi SW 5.8 mph - N/A   Scattered Clouds
9:20 PM 42.8 °F 40.1 °F 41.0 °F 93% 29.62 in 5.6 mi WSW 4.6 mph - N/A Rain Rain
9:50 PM 42.8 °F 37.5 °F 41.0 °F 93% 29.62 in 5.0 mi WNW 9.2 mph - N/A Rain Rain